Location: Asheville, NC
(35.6000°N, 82.5500°W)
Time: 00:26:29
(UTC-04:00)

Vanguard 2 - Pass Details

Date: 08 March 2018
Orbit: 553 x 2939 km, 32.9° (Epoch: 22 June)

Event Time Altitude Azimuth Distance (km) Brightness Sun altitude
Rises 09:28:30 0° 195° (SSW) 5,585 12.1 29.5°
Reaches altitude 10° 09:32:57 10° 182° (S) 4,930 12.1 30.3°
Maximum altitude 09:43:54 25° 135° (SE) 4,422 13.6 32.1°
Drops below altitude 10° 09:56:27 10° 90° (E) 5,768 12.8 34.2°
Sets 10:02:09 0° 79° (E) 6,722 12.8 35.1°
